x

8452951 - Potter Cove, Prudence Island, Ri (ptcr1) Weather Station

3:12 - Fri 1st Jul 2016 All times are EDT. -4 hours from GMT.

  • Wind
    2mph, 5mph gusts
  • Aire Temp 68°f
  • Sea Pressure 1017.3mb
  • 8452951 - Potter Cove, Prudence Island, Ri
  • 8452951 - Potter Cove, Prudence Island, Ri

More Historic Weather Station data

Upgrade to MSW Pro to gain access to the past 30 days of data for over 8000 Wavebouys and Weather Stations around the globe.

Join Pro

Comparision Forecast

View Surf forecast
   
vie 07/01 3:12 2 5 mph 1017.3mb 68f
3:06 3 5 mph 1017.3mb 68f
3:00 2 6 mph 1017.4mb 68f
2:54 2 3 mph 1017.4mb 68f
2:48 2 3 mph 1017.4mb 68f
2:42 2 5 mph 1017.4mb 68f
2:36 1 3 mph 1017.4mb 68f
2:30 2 5 mph 1017.3mb 69f
2:24  -  2 mph 1017.4mb 69f
2:18  -  2 mph 1017.4mb 69f
2:12 2
mph
1017.4mb 70f
2:06 2 3 mph 1017.3mb 70f
2:00 2 3 mph 1017.3mb 70f
1:54 1 3 mph 1017.3mb 70f
1:48 2 3 mph 1017.2mb 71f
1:42 5 7 mph 1017.2mb 71f
1:36 5 7 mph 1017.2mb 71f
1:30 3 8 mph 1017.2mb 71f
1:24 5 8 mph 1017.2mb 70f
1:18 2 6 mph 1017.3mb 70f
1:12 3 5 mph 1017.3mb 70f
1:06 2 5 mph 1017.3mb 70f
1:00 2 5 mph 1017.4mb 70f
12:54 2 3 mph 1017.4mb 70f
12:48 2 3 mph 1017.3mb 70f
12:42 1 2 mph 1017.5mb 69f
12:36 1 3 mph 1017.5mb 69f
12:30 2 3 mph 1017.5mb 69f
12:24 1 3 mph 1017.6mb 69f
12:18  -  2 mph 1017.7mb 69f
12:12 2 3 mph 1017.7mb 69f
12:06 2 3 mph 1017.7mb 70f
12:00 2 5 mph 1017.7mb 70f
jue 06/30 11:54 1 5 mph 1017.7mb 70f
11:48  -  mph 1017.6mb 70f
11:42  -  mph 1017.6mb 70f
11:36  -  mph 1017.6mb 70f
11:30 2 6 mph 1017.6mb 70f
11:24 5 7 mph 1017.6mb 70f
11:18  -  mph 1017.6mb -
11:12  -  mph 1017.6mb -
11:06  -  mph 1017.6mb -
11:00  -  mph - 70f
10:54  -  mph - 70f
10:48  -  mph - 70f
10:42  -  mph - 70f
10:36  -  mph - 70f
10:30  -  mph - 70f
10:24  -  mph - 70f
10:18  -  mph - 70f
10:12  -  mph - 70f
10:06  -  mph - 70f
10:00  -  mph - 70f
9:18  -  mph 1016.9mb -
9:12  -  mph 1016.9mb -
9:06  -  mph 1016.8mb -
9:00  -  mph 1016.7mb -
8:30  -  mph 1016.5mb -
8:24  -  mph 1016.4mb -
8:18  -  mph 1016.4mb -
8:12  -  mph 1016.3mb -
8:06  -  mph 1016.3mb -
8:00  -  mph 1016.3mb -
7:54  -  mph 1016.2mb -
7:48  -  mph 1016.2mb -
7:42  -  mph 1016.2mb -
7:36  -  mph 1016.1mb -
7:00  -  mph 1015.8mb -
6:54  -  mph 1015.8mb -
6:48  -  mph 1015.7mb -
6:42  -  mph 1015.7mb -
6:36  -  mph 1015.7mb -
6:30  -  mph 1015.6mb -
6:24  -  mph 1015.6mb -
6:18  -  mph 1015.5mb -
6:12  -  mph 1015.5mb -
6:06  -  mph 1015.4mb -
6:00  -  mph 1015.4mb -
5:54  -  mph 1015.4mb -
5:48  -  mph 1015.3mb -
5:42  -  mph 1015.3mb -
5:36  -  mph 1015.2mb -
5:30 5 9 mph 1015.2mb 76f
5:24 5 11 mph 1015.3mb 76f
5:18 7 11 mph 1015.3mb 76f
5:12 7 15 mph 1015.4mb 76f
5:06 7 13 mph 1015.4mb 76f
5:00 7 14 mph 1015.4mb 76f
4:54 7 13 mph 1015.5mb 76f
4:48 7 13 mph 1015.4mb 76f
4:42 7 11 mph 1015.5mb 76f
4:36 6 14 mph 1015.5mb 76f
4:30 7 13 mph 1015.5mb 76f
4:24 7 15 mph 1015.5mb 77f
4:18 8 14 mph 1015.5mb 76f
4:12 7 15 mph 1015.5mb 77f
4:06 6 14 mph 1015.6mb 77f
4:00 7 17 mph 1015.5mb 77f
3:54 8 14 mph 1015.5mb 76f
3:48 8 15 mph 1015.5mb 76f
3:42 9 17 mph 1015.6mb 76f
3:36 7 16 mph 1015.6mb 76f
3:30 7 15 mph 1015.7mb 77f
3:24 7 15 mph 1015.7mb 77f
3:18 7 14 mph 1015.6mb -
3:12 7 20 mph 1015.5mb -
3:06 8 16 mph 1015.5mb -
3:00 8 16 mph 1015.4mb 77f
2:54 7 11 mph 1015.4mb 77f
2:48 8 16 mph 1015.5mb 78f
2:42 7 15 mph 1015.5mb 79f
2:36 6 15 mph 1015.5mb 78f
2:30 7 11 mph 1015.4mb 79f
2:24 7 13 mph 1015.4mb 78f
2:18 6 10 mph 1015.5mb 80f
2:12 6 11 mph 1015.5mb 79f
2:06 6 11 mph 1015.5mb 80f
2:00 6 11 mph 1015.6mb 79f
1:54 7 14 mph 1015.7mb 78f
1:48 7 13 mph 1015.7mb 79f
1:42 7 13 mph 1015.6mb 78f
1:36 6 10 mph 1015.7mb 79f
1:30 5 11 mph 1015.6mb 79f
1:24 7 11 mph 1015.5mb 79f
1:18 6 15 mph 1015.5mb 80f
1:12 2 3 mph 1015.5mb 79f
1:06 5
mph
1015.5mb 79f
1:00 5 6 mph 1015.5mb 78f
12:54 5 6 mph 1015.6mb 78f
12:48 5
mph
1015.7mb 78f
12:42 5 6 mph 1015.7mb 79f
12:36 3 5 mph 1015.6mb 79f
12:30 5
mph
1015.6mb 79f
12:24 3 5 mph 1015.7mb 78f
12:18 3
mph
1015.7mb 78f
12:12 3 5 mph 1015.7mb 78f
12:06 5 6 mph 1015.7mb 78f
12:00 3 5 mph 1015.7mb 78f
11:30 5 6 mph 1015.7mb 78f
11:24 3 5 mph 1015.7mb 77f
11:18 3 6 mph 1015.6mb 77f
11:12 3 6 mph 1015.7mb 78f
11:06 2 5 mph 1015.7mb 78f
11:00 3 6 mph 1015.7mb 78f
10:54 5 6 mph 1015.8mb 77f
10:48 5 7 mph 1015.7mb 77f
10:42 5 7 mph 1015.8mb 76f
10:36 6 7 mph 1015.8mb 76f
10:30 6 8 mph 1015.7mb 76f
10:24 7 8 mph 1015.6mb 76f
10:18 7 10 mph 1015.7mb 76f
10:12 5 8 mph 1015.7mb 76f
10:06 6 9 mph 1015.6mb 76f
10:00 6 9 mph 1015.6mb 77f
9:54 6 10 mph 1015.6mb 76f
9:48 7 10 mph 1015.6mb 76f
9:42 8 10 mph 1015.6mb 76f
9:36 2 7 mph 1015.5mb 76f
9:30 3 6 mph 1015.6mb 76f
9:24 5 9 mph 1015.7mb 76f
9:18 6 8 mph 1015.6mb 75f
9:12 6 9 mph 1015.6mb 76f
9:06 6 9 mph 1015.6mb 75f
9:00 5 7 mph 1015.7mb 74f
8:54 6 8 mph 1015.7mb 74f
8:48 5 7 mph 1015.7mb 74f
8:42 5 8 mph 1015.7mb 74f
8:36 5 8 mph 1015.7mb 73f
8:30 5 7 mph 1015.7mb 73f
8:24 3 7 mph 1015.7mb 73f
8:18 3 6 mph 1015.6mb 73f
8:12 5 7 mph 1015.6mb 73f
8:06 5 8 mph 1015.6mb 72f
8:00 2 7 mph 1015.5mb 72f
7:54 3 6 mph 1015.4mb 72f
7:48 5 8 mph 1015.3mb 71f
7:42 3 6 mph 1015.2mb 71f
7:36 3 7 mph 1015.2mb 71f
7:30 2 6 mph 1015.1mb 71f
7:24 3 7 mph 1015mb 71f
7:18 2 6 mph 1014.9mb 70f
7:12 3 7 mph 1014.8mb 70f
7:06 2 5 mph 1014.7mb 70f
7:00 2 6 mph 1014.7mb 70f
6:54 1 3 mph 1014.7mb 69f
6:48 3 5 mph 1014.6mb 69f
6:42 3 6 mph 1014.6mb 69f
6:36 2 6 mph 1014.6mb 69f
6:30 2 5 mph 1014.6mb 68f
6:24 2 5 mph 1014.5mb 68f
6:18 2 6 mph 1014.5mb 68f
6:12 3 6 mph 1014.4mb 67f
6:06 2 5 mph 1014.4mb 67f
6:00 3 5 mph 1014.3mb 67f
5:54 3 5 mph 1014.2mb 67f
5:48 3 5 mph 1014.2mb 66f
5:42 3 5 mph 1014.1mb 66f
5:36 3 6 mph 1014mb 66f
5:30 2 6 mph 1014mb 65f
5:24 3 5 mph 1013.9mb 65f
5:18 2 5 mph 1013.9mb 66f
5:12 2 6 mph 1013.8mb 66f
5:06 2 6 mph 1013.7mb 65f
5:00 2 3 mph 1013.6mb 65f
4:54 2 5 mph 1013.5mb 65f
4:48 2 5 mph 1013.5mb 66f
4:42 2 3 mph 1013.4mb 66f
4:36 2 3 mph 1013.4mb 66f
4:30 2
mph
1013.5mb 66f
4:24 2 3 mph 1013.3mb 66f
4:18 2 3 mph 1013.2mb 66f
4:12 2 3 mph 1013.2mb 66f
4:06 2 3 mph 1013.1mb 67f
4:00 2 3 mph 1013.1mb 67f
3:54 1 2 mph 1013.1mb 67f
3:48 1 2 mph 1013mb 67f
3:42 1 2 mph 1012.9mb 67f
3:36  -  1 mph 1012.9mb 67f
3:30  -  2 mph 1012.9mb 67f
3:24  -  1 mph 1012.8mb 67f
3:18 1 2 mph 1012.8mb 67f
3:12 3 5 mph 1012.8mb 67f
3:06 3 6 mph 1012.7mb 67f
3:00 3 6 mph 1012.7mb 67f
2:54 3 6 mph 1012.6mb 67f
2:48 3 6 mph 1012.6mb -
2:42 3 6 mph 1012.6mb -
2:36 3 5 mph 1012.6mb -
2:30 3 6 mph 1012.7mb 68f
2:24 2 3 mph 1012.7mb 68f
2:18 2 3 mph - 68f
2:12 2 3 mph - 68f
2:06 2 3 mph - 68f
2:00 3 5 mph 1012.8mb 67f
1:54 3 5 mph 1012.8mb 67f
1:48 3 5 mph 1012.7mb -
1:42 3 5 mph 1012.6mb -
1:36 3 6 mph 1012.6mb -
1:30 2
mph
1012.6mb 68f
1:24 1 2 mph 1012.6mb 68f
1:18  -  mph 1012.6mb 68f
1:12  -  mph 1012.6mb 68f
1:06  -  1 mph 1012.6mb 68f
1:00  -  mph 1012.6mb 68f
12:54  -  mph 1012.6mb 68f
12:48  -  1 mph 1012.6mb 68f
12:42  -  1 mph 1012.6mb 68f
12:36  -  2 mph 1012.7mb 68f
12:30 1 2 mph 1012.6mb 68f
12:24 1 2 mph 1012.6mb 68f
12:18  -  1 mph 1012.5mb 68f
12:12  -  3 mph 1012.6mb 67f
12:06  -  2 mph 1012.6mb 67f
12:00  -  1 mph 1012.6mb 67f
mié 06/29 11:54 1 2 mph 1012.6mb 68f
11:48 1 3 mph 1012.6mb 68f
11:42  -  2 mph 1012.6mb 68f
11:36 1 2 mph 1012.7mb 68f
11:30 2 3 mph 1012.7mb 68f
11:24 2 3 mph 1012.7mb 68f
11:18 2 5 mph 1012.6mb -
11:12 2 3 mph 1012.6mb -
11:06 2 6 mph 1012.6mb -
11:00  -  mph 1012.5mb -
10:54  -  mph 1012.5mb -
10:48  -  mph 1012.5mb -
10:42  -  mph 1012.5mb -
10:36  -  mph 1012.5mb -
10:30  -  mph 1012.5mb -
10:24  -  mph 1012.5mb -
10:18  -  mph 1012.4mb -
10:12  -  mph 1012.4mb -
10:06  -  mph 1012.3mb -
10:00  -  mph 1012.4mb -
9:54  -  mph 1012.3mb -
9:48 5 7 mph - -
9:42 3 7 mph - -
9:36 3 7 mph - -
9:30  -  mph 1012.1mb -
9:24  -  mph 1012mb -
9:18  -  mph 1011.9mb -
9:12  -  mph 1011.9mb -
9:06  -  mph 1011.9mb -
9:00  -  mph 1011.8mb -
8:54  -  mph 1011.7mb -
8:48  -  mph - 68f
8:42  -  mph - 69f
8:36  -  mph - 69f
8:30  -  mph - 69f
8:24  -  mph - 69f
8:18  -  mph 1011.6mb 69f
8:12  -  mph 1011.6mb 69f
8:06  -  mph 1011.6mb 69f
8:00  -  mph - 70f
7:54  -  mph - 70f
7:48  -  mph - 70f
7:42  -  mph - 70f
7:36  -  mph - 70f
7:30  -  mph 1011.6mb -
7:24  -  mph 1011.6mb -
7:18  -  mph 1011.6mb -
7:12  -  mph 1011.6mb -
7:06  -  mph 1011.6mb -
7:00  -  mph 1011.5mb -
6:54  -  mph 1011.5mb -
6:48  -  mph 1011.4mb -
6:42  -  mph 1011.4mb -
6:36  -  mph 1011.3mb -
6:30  -  mph 1011.4mb -
6:24  -  mph 1011.4mb -
6:18 5 8 mph - -
6:12 2 6 mph - -
6:06 5 10 mph - -
6:00 6 11 mph - -
5:54 5 10 mph - -
5:48 6 10 mph - -
5:42 5 10 mph - -
5:36 5 10 mph - -
5:30 7 14 mph 1011.3mb 73f
5:24 6 14 mph 1011.3mb 74f
5:18 6 13 mph 1011.3mb 74f
5:12 7 16 mph 1011.2mb 74f
5:06 7 15 mph 1011.1mb 74f
5:00 7 15 mph 1011.1mb 74f
4:54 8 15 mph 1011mb 74f
4:48 7 15 mph 1011.1mb 74f
4:42 6 13 mph 1011.2mb 74f
4:36 6 14 mph 1011.3mb 74f
4:30 6 17 mph 1011.2mb 74f
4:24 7 16 mph 1011.1mb 74f
4:18 9 17 mph 1011.1mb 74f
4:12 7 17 mph 1011.2mb 74f
4:06 7 14 mph 1011.2mb 74f
4:00 8 17 mph 1011.2mb 74f
3:54 6 14 mph 1011.2mb 74f
3:48 6 14 mph 1011.3mb 74f
3:42 6 13 mph 1011.3mb 74f
3:36 7 14 mph 1011.3mb 73f
3:30 7 14 mph 1011.3mb 74f
3:24 7 14 mph 1011.3mb 74f
3:18 8 16 mph 1011.3mb 74f
3:12 8 14 mph 1011.1mb 73f
3:06 8 14 mph 1011.1mb 74f
3:00 6 14 mph 1011.1mb 74f
2:54 6 14 mph 1011.1mb 74f
2:48 7 15 mph 1011.2mb 74f
2:42 7 14 mph 1011.1mb 74f
2:36 7 14 mph 1011.1mb 74f
2:30 8 15 mph 1011.1mb 73f
2:24 8 17 mph 1011.1mb 74f
2:18 7 15 mph 1011.2mb 74f
2:12 8 15 mph 1011.2mb 74f
2:06 9 16 mph 1011.3mb 73f
2:00 10 17 mph 1011.4mb 73f
1:54 8 15 mph 1011.4mb 73f
1:48 7 14 mph 1011.4mb 73f
1:42 8 15 mph 1011.4mb 74f
1:36 7 14 mph 1011.5mb 74f
1:30 8 17 mph 1011.5mb 74f
1:24 6 13 mph 1011.5mb 75f
1:18 9 13 mph 1011.6mb 74f
1:12 7 13 mph 1011.6mb 75f
1:06 8 11 mph 1011.6mb 74f
1:00 6 11 mph 1011.6mb 74f
12:54 6 11 mph 1011.5mb 75f
12:48 7 11 mph 1011.7mb 75f
12:42 5 9 mph 1011.7mb 75f
12:36 6 10 mph 1011.8mb 74f
12:30 5 8 mph 1011.9mb 74f
12:24 5 9 mph 1012mb 73f
12:18 5 10 mph 1012.1mb 74f
12:12 5 9 mph 1012.1mb 73f
12:06 2 6 mph 1012.1mb 74f
12:00 3 8 mph 1012.1mb 74f
11:54 5 9 mph 1012.1mb 75f
11:48 5 8 mph 1012mb 74f
11:42 3 8 mph 1012mb 73f
11:36 6 10 mph 1012mb 73f
11:30 5 9 mph 1012mb 73f
11:24 3 9 mph 1012mb 74f
11:18 5 10 mph 1012.2mb 73f
11:12 5 9 mph 1012.2mb 72f
11:06 5 10 mph 1012.2mb 72f
11:00 5 9 mph 1012.3mb 72f
10:54 5 9 mph 1012.4mb 72f
10:48 5 9 mph 1012.4mb 71f
10:42 3 7 mph 1012.4mb 71f
10:36 3 9 mph 1012.4mb 70f
10:30 3 7 mph 1012.5mb 70f
10:24 6 9 mph 1012.5mb 70f
10:18 5 8 mph 1012.5mb 69f
10:12 5 9 mph 1012.6mb 70f
10:06 5 9 mph 1012.6mb 70f
10:00 5 8 mph 1012.6mb 71f
9:54 2 6 mph 1012.6mb 71f
9:48 5 7 mph 1012.6mb 71f
9:42 5 7 mph 1012.5mb 71f
9:36 3 7 mph 1012.5mb 71f
9:30 5 9 mph 1012.6mb 71f
9:24 3 9 mph 1012.6mb 71f
9:18 2 7 mph 1012.6mb 70f
9:12 3 6 mph 1012.6mb 70f
9:06 3 6 mph 1012.7mb 69f
9:00 2 6 mph 1012.8mb 70f
8:54 5 8 mph 1012.7mb 69f
8:48 3 6 mph 1012.6mb 70f
8:42 3 7 mph 1012.6mb 69f
8:36 5 8 mph 1012.6mb 69f
8:30 3 7 mph 1012.5mb 69f
8:24 3 7 mph 1012.6mb 69f
8:18 3 8 mph 1012.6mb 69f
8:12 3 7 mph 1012.6mb 69f
8:06 2 6 mph 1012.6mb 69f
8:00 2 6 mph 1012.5mb 69f
7:54 3 7 mph 1012.5mb 69f
7:48 3 6 mph 1012.4mb 69f
7:42 3 7 mph 1012.4mb 69f
7:36 2 6 mph 1012.4mb 69f
7:30 2 5 mph 1012.4mb 69f
7:24 2 5 mph 1012.4mb 68f
7:18 2 5 mph 1012.5mb 68f
7:12 2 6 mph 1012.4mb 68f
7:06 2 5 mph 1012.3mb 68f
7:00 3 6 mph 1012.3mb 68f
6:54 2 7 mph 1012.3mb 69f
6:48 2 7 mph 1012.3mb 69f
6:42 2 6 mph 1012.3mb 68f
6:36 2 5 mph 1012.4mb 69f
6:30 2 7 mph 1012.4mb 69f
6:24 2 6 mph 1012.4mb 68f
6:18 2 3 mph 1012.4mb 68f
6:12 3 6 mph 1012.4mb 68f
6:06 3 7 mph 1012.4mb 68f
6:00 3 7 mph 1012.4mb 68f
5:54 3 6 mph 1012.3mb 68f
5:48 2 3 mph 1012.3mb 68f
5:42 3 6 mph 1012.3mb 68f
5:36 2 6 mph 1012.4mb 68f
5:30 2 5 mph 1012.3mb 68f
5:24 2 6 mph 1012.3mb 68f
5:18 2 5 mph 1012.3mb 68f
5:12 3 7 mph 1012.3mb 68f
5:06 3 7 mph 1012.3mb 68f
5:00 5 8 mph 1012.4mb 68f
4:54 3 8 mph 1012.4mb 68f
4:48 5 9 mph 1012.3mb 68f
4:42 5 8 mph 1012.3mb 68f
4:36 3 7 mph 1012.3mb 68f
4:30 2 6 mph 1012.4mb 68f
4:24 3 8 mph 1012.5mb 68f
4:18 5 10 mph 1012.5mb 68f
4:12 3 7 mph 1012.5mb 68f
4:06 5 10 mph 1012.5mb 68f
4:00 5 7 mph 1012.5mb 68f
3:54 3 8 mph 1012.5mb 68f
3:48 3 7 mph 1012.4mb 68f
3:42 5 8 mph 1012.4mb 68f
3:36 5 9 mph 1012.3mb 68f
3:30 3 9 mph 1012.3mb 68f
3:24 3 8 mph 1012.4mb 68f
3:18 5 8 mph 1012.3mb 68f
3:12 5 8 mph 1012.3mb 68f
3:06 3 7 mph 1012.3mb 68f
3:00 5 8 mph 1012.4mb 68f
2:54 3 9 mph 1012.4mb 68f
2:48 5 9 mph 1012.4mb 68f
2:42 3 7 mph 1012.6mb 68f
2:36 3 7 mph 1012.6mb 68f
2:30 2 7 mph 1012.6mb 68f
2:24 3 7 mph 1012.6mb 68f
2:18 5 7 mph 1012.7mb 68f
2:12 2 7 mph 1012.7mb 67f
2:06 2 6 mph 1012.8mb 67f
2:00 3 8 mph 1012.8mb 68f
1:54 2 7 mph 1012.8mb 67f
1:48  -  mph 1012.9mb 67f
1:42  -  mph 1012.9mb 67f
1:36  -  mph 1012.9mb 67f
1:30 5 9 mph 1013mb 67f
1:24 5 9 mph 1013.1mb 67f
1:18 5 10 mph 1013.1mb 67f
1:12 5 10 mph 1013.2mb 67f
1:06 5 11 mph 1013.2mb 67f
1:00 5 10 mph 1013.3mb 67f
12:54 6 11 mph 1013.4mb 67f
12:48 6 14 mph 1013.6mb 67f
12:42 7 15 mph 1013.7mb 68f
12:36 6 13 mph 1013.7mb 68f
12:30 7 14 mph 1013.7mb 68f
12:24 6 11 mph 1013.7mb 69f
12:18 5 8 mph 1013.7mb 69f
12:12 6 14 mph 1013.7mb 69f
12:06 7 11 mph 1013.6mb 69f
12:00 6 11 mph 1013.7mb 69f
mar 06/28 11:54 6 13 mph 1013.7mb 69f
11:48  -  mph 1013.8mb 69f
11:42  -  mph 1013.8mb 69f
11:36  -  mph 1013.8mb 69f
11:30 5 10 mph 1013.8mb 69f
11:24 5 9 mph 1013.8mb 69f
11:18 5 10 mph 1013.9mb 69f
11:12 3 8 mph 1013.9mb 69f
11:06 3 7 mph 1014mb 69f
11:00  -  mph 1014mb -
10:54  -  mph 1014.1mb -
10:48 5 8 mph - -
10:42 3 8 mph - -
10:36 5 9 mph - -
10:30  -  mph 1014.2mb 69f
10:24  -  mph 1014.1mb 69f
10:18  -  mph 1014.1mb -
10:12  -  mph 1014mb -
10:06  -  mph 1013.9mb -
10:00  -  mph 1014.1mb -
9:54  -  mph 1014.2mb -
9:48  -  mph 1014.2mb -
9:42  -  mph 1014.4mb -
9:36  -  mph 1014.5mb -
9:30  -  mph 1014.4mb -
9:24  -  mph 1014.6mb -
9:18  -  mph 1014.6mb 69f
9:12  -  mph 1014.5mb 69f
9:06  -  mph 1014.5mb 69f
9:00  -  mph - 69f
8:54  -  mph - 69f
8:48  -  mph 1014.4mb -
8:42  -  mph 1014.3mb -
8:36  -  mph 1014.3mb -
8:30  -  mph 1014.3mb -
8:24  -  mph 1014.4mb -
8:18  -  mph 1014.5mb 69f
8:12  -  mph 1014.5mb 69f
8:06  -  mph 1014.5mb 69f
8:00  -  mph 1014.6mb -
7:54  -  mph 1014.6mb -
7:48  -  mph 1014.4mb -
7:42  -  mph 1014.5mb -
7:36  -  mph 1014.5mb -
7:30  -  mph 1014.5mb -
7:24  -  mph 1014.5mb -
7:18  -  mph 1014.6mb -
7:12  -  mph 1014.3mb -
7:06  -  mph 1014.5mb -
7:00  -  mph 1014.4mb -
6:54  -  mph 1014.4mb -
6:48  -  mph 1014.4mb -
6:42  -  mph 1014.5mb -
6:36  -  mph 1014.5mb -
6:30  -  mph 1014.5mb -
6:24  -  mph 1014.5mb -
6:18  -  mph 1014.6mb -
6:12  -  mph 1014.5mb -
6:06  -  mph 1014.6mb -
6:00  -  mph 1014.5mb 71f
5:54  -  mph 1014.6mb 71f
5:48  -  mph - 71f
5:42  -  mph - 71f
5:36  -  mph - 72f
5:30 5 9 mph 1014.5mb 72f
5:24 6 9 mph 1014.5mb 72f
5:18 5 13 mph 1014.5mb 72f
5:12 6 11 mph 1014.6mb 73f
5:06 5 10 mph 1014.6mb 74f
5:00 6 14 mph 1014.6mb 74f
4:54 5 11 mph 1014.8mb 74f
4:48 6 11 mph 1014.8mb 73f
4:42 5 8 mph 1014.8mb 73f
4:36 3 8 mph 1014.8mb 73f
4:30 5 9 mph 1014.8mb 72f
4:24 5 10 mph 1014.8mb 72f
4:18 5 8 mph 1014.8mb 72f
4:12 3 8 mph 1015mb 72f
4:06 6 13 mph 1015mb 72f
4:00 3 9 mph 1015.3mb 72f
3:54 5 10 mph 1015.3mb 72f
3:48 6 9 mph 1015.4mb 72f
3:42 5 10 mph 1015.3mb 71f
3:36 5 10 mph 1015.2mb 71f
3:30 5 10 mph 1015.4mb 71f
3:24 5 10 mph 1015.3mb 71f
3:18 3 11 mph 1015.5mb 71f
3:12 5 9 mph 1015.5mb 71f
3:06 5 8 mph 1015.5mb 71f
3:00 5 8 mph 1015.6mb 71f
2:54 6 10 mph 1015.8mb 71f
2:48 5 8 mph 1015.8mb 71f
2:42 5 9 mph 1015.9mb 72f
2:36 3 7 mph 1015.7mb 71f
2:30 3 8 mph 1015.7mb 71f
2:24 3 6 mph 1015.6mb 72f
2:18 3 6 mph 1015.7mb 72f
2:12 6 10 mph 1015.8mb 71f
2:06 5 9 mph 1015.8mb 72f
2:00 7 13 mph 1015.8mb 71f
1:54 6 14 mph 1015.9mb 72f
1:48 5 9 mph 1015.9mb 72f
1:42 6 9 mph 1016mb 72f
1:36 5 9 mph 1015.9mb 72f
1:30 5 9 mph 1016mb 73f
1:24 5 8 mph 1016mb 73f
1:18 5 9 mph 1016.2mb 73f
1:12 5 9 mph 1016.1mb 73f
1:06 3 7 mph 1016.2mb 73f
1:00 3 8 mph 1016.2mb 73f
12:54 5 11 mph 1016.2mb 73f
12:48 6 11 mph 1016.2mb 73f
12:42 6 9 mph 1016.3mb 72f
12:36 5 9 mph 1016.3mb 72f
12:30 5 9 mph 1016.4mb 72f
12:24 6 11 mph 1016.4mb 72f
12:18 5 13 mph 1016.4mb 72f
12:12 6 11 mph 1016.5mb 72f
12:06 5 11 mph 1016.5mb 72f
12:00 6 11 mph 1016.5mb 71f
11:54 7 13 mph 1016.6mb 71f
11:48 6 13 mph 1016.6mb 71f
11:42 5 10 mph 1016.8mb 71f
11:36 5 11 mph 1016.8mb 71f
11:30 5 10 mph 1016.6mb 71f
11:24 5 10 mph 1016.6mb 71f
11:18 6 11 mph 1016.6mb 71f
11:12 5 9 mph 1016.7mb 71f
11:06 5 10 mph 1016.7mb 71f
11:00 6 11 mph 1016.8mb 71f
10:54 5 10 mph 1016.7mb 71f
10:48 5 9 mph 1016.7mb 72f
10:42 5 9 mph 1016.7mb 72f
10:36 5 9 mph 1016.7mb 72f
10:30 5 8 mph 1016.7mb 72f
10:24 6 10 mph 1016.8mb 71f
10:18 6 10 mph 1016.8mb 71f
10:12 6 13 mph 1016.8mb 71f
10:06 6 14 mph 1016.9mb 71f
10:00 8 14 mph 1016.8mb 71f
9:54 6 13 mph 1016.9mb 71f
9:48  -  mph 1017mb 72f
9:42  -  mph 1017mb 71f
9:36  -  mph 1017mb 71f
9:30 7 13 mph 1017.1mb 71f
9:24 6 13 mph 1017.1mb 71f
9:18 5 13 mph 1017.1mb 71f
9:12 6 11 mph 1017.1mb 71f
9:06 5 10 mph 1017.1mb 71f
9:00 7 11 mph 1017.1mb 70f
8:54 6 11 mph 1017.1mb 71f
8:48 5 13 mph 1017.1mb 71f
8:42 6 10 mph 1017.1mb 70f
8:36 5 13 mph 1017.1mb 70f
8:30 5 10 mph 1017mb 70f
8:24 5 10 mph 1017mb 69f
8:18 3 7 mph 1017mb 69f
8:12 5 8 mph 1017mb 69f
8:06 5 9 mph 1017mb 69f
8:00 5 9 mph 1017mb 69f
7:54 3 9 mph 1017mb 69f
7:48 5 9 mph 1017mb 69f
7:42 5 9 mph 1017mb 69f
7:36 5 10 mph 1016.9mb 69f
7:30 3 7 mph 1016.9mb 69f
7:24 5 8 mph 1016.8mb 69f
7:18 3 9 mph 1016.8mb 68f
7:12 5 8 mph 1016.8mb 68f
7:06 5 9 mph 1016.8mb 68f
7:00 3 7 mph 1016.9mb -
6:54 3 8 mph 1016.8mb -
6:48 3 8 mph 1016.8mb -
6:42 3 9 mph 1016.7mb -
6:36 2 6 mph 1016.6mb -
6:30 3 7 mph 1016.6mb 68f
6:24 3 8 mph 1016.6mb 68f
6:18 3 8 mph 1016.6mb 68f
6:12 3 7 mph 1016.6mb 68f
6:06 3 7 mph 1016.5mb 68f
6:00 3 7 mph 1016.4mb 68f
5:54 5 10 mph 1016.4mb 68f
5:48 2 6 mph 1016.4mb 67f
5:42 3 7 mph 1016.4mb 67f
5:36 3 6 mph 1016.5mb 67f
5:30 2 6 mph 1016.5mb 67f
5:24 3 7 mph 1016.5mb 67f
5:18 3 8 mph 1016.5mb 68f
5:12 5 9 mph 1016.5mb 68f
5:06 5 8 mph 1016.5mb 68f
5:00 5 8 mph 1016.5mb 68f
4:54 5 9 mph 1016.5mb 68f
4:48 5 9 mph 1016.4mb 68f
4:42 5 9 mph 1016.4mb 68f
4:36 3 11 mph 1016.4mb 68f
4:30 3 7 mph 1016.4mb 68f
4:24 5 9 mph 1016.4mb 68f
4:18 5 10 mph 1016.4mb 68f
4:12 5 10 mph 1016.4mb 68f
4:06 3 10 mph 1016.4mb 68f
4:00 6 10 mph 1016.3mb 68f
3:54 6 13 mph 1016.3mb 68f
3:48 6 11 mph 1016.3mb 68f
3:42 5 10 mph 1016.4mb 68f
3:36 6 14 mph 1016.5mb 68f
3:30 6 11 mph 1016.5mb 68f
3:24 6 10 mph 1016.6mb 68f
3:18 5 9 mph 1016.7mb 68f
3:12 5 9 mph 1016.7mb 67f
3:06 5 9 mph 1016.8mb 68f
3:00 3 10 mph 1016.9mb 68f
2:54 5 10 mph 1016.9mb 68f
2:48 3 8 mph 1017mb -
2:42 6 10 mph 1017.1mb -
2:36 5 9 mph 1017.1mb -
2:30 5 9 mph 1017.3mb 68f
2:24 5 10 mph 1017.3mb 68f
2:18 5 9 mph 1017.3mb 68f
2:12 3 9 mph 1017.4mb 68f
2:06 5 10 mph 1017.4mb 68f
2:00 5 10 mph 1017.4mb 68f
1:54 3 9 mph 1017.4mb 67f
1:48 3 9 mph - -
1:42 2 7 mph - -
1:36 3 8 mph - -
1:30 3 6 mph 1017.6mb 67f
1:24 5 8 mph 1017.6mb 67f
1:18 3 9 mph 1017.7mb 67f
1:12 3 8 mph 1017.7mb 67f
1:06 5 9 mph 1017.7mb 67f
1:00 5 10 mph 1017.8mb 68f
12:54 3 9 mph 1017.8mb 68f
12:48 5 10 mph 1017.8mb 68f
12:42 5 9 mph 1017.8mb 68f
12:36 3 8 mph 1017.8mb 68f
12:30 3 9 mph 1017.9mb 68f
12:24 5 9 mph 1017.9mb 68f
12:18 3 7 mph 1017.9mb 68f
12:12 3 10 mph 1018mb 68f
12:06 5 8 mph 1018mb 68f
12:00 5 8 mph 1018mb 68f
lun 06/27 11:54 5 8 mph 1018.1mb 68f
11:48  -  mph 1018.2mb 68f
11:42  -  mph 1018.3mb 68f
11:36  -  mph 1018.2mb 68f
11:30 5 10 mph 1018.1mb 68f
11:24 5 10 mph 1018.1mb 68f
11:18 5 8 mph 1018.1mb 68f
11:12 5 11 mph 1018.3mb 68f
11:06 3 8 mph 1018.3mb 68f
11:00  -  mph - 68f
10:54  -  mph - 68f
10:48  -  mph 1018.3mb -
10:42  -  mph 1018.3mb -
10:36  -  mph 1018.3mb -
10:30  -  mph 1018.2mb -
10:24  -  mph 1018.1mb -
10:18  -  mph 1018.1mb 68f
10:12  -  mph 1018.2mb 68f
10:06  -  mph 1018.2mb 68f
10:00  -  mph 1018.2mb 68f
9:54  -  mph 1018.2mb 69f
9:48  -  mph 1018.3mb -
9:42  -  mph 1018.3mb -
9:36  -  mph 1018.3mb -
9:30  -  mph 1018.3mb -
9:24  -  mph 1018.2mb -
9:18  -  mph 1018.1mb -
9:12  -  mph 1018mb -
9:06  -  mph 1018mb -
9:00  -  mph 1017.9mb 69f
8:54  -  mph 1017.9mb 69f
8:48  -  mph 1017.9mb -
8:42  -  mph 1017.8mb -
8:36  -  mph 1017.8mb -
8:30  -  mph 1017.8mb -
8:24  -  mph 1017.6mb -
8:18  -  mph 1017.6mb -
8:12  -  mph 1017.6mb -
8:06  -  mph 1017.7mb -
8:00  -  mph 1017.8mb -
7:54  -  mph 1017.7mb -
7:48  -  mph 1017.7mb -
7:42  -  mph 1017.7mb -
7:36  -  mph 1017.7mb -
7:30  -  mph 1017.7mb -
7:24  -  mph 1017.7mb -
7:18  -  mph 1017.7mb -
7:12  -  mph 1017.7mb -
7:06  -  mph 1017.7mb -
7:00  -  mph 1017.7mb -
6:54  -  mph 1017.8mb -
6:48  -  mph 1017.8mb -
6:42  -  mph 1017.8mb -
6:36  -  mph 1017.8mb -
6:30  -  mph 1017.8mb -
6:24  -  mph 1017.8mb -
6:18  -  mph - 72f
6:12  -  mph - 72f
6:06  -  mph - 73f
6:00  -  mph 1017.9mb -
5:54  -  mph 1017.9mb -
5:48  -  mph 1017.9mb 72f
5:42  -  mph 1018mb 72f
5:36  -  mph 1018mb 71f
5:30 6 14 mph 1018mb 71f
5:24 6 13 mph 1018mb 72f
5:18 6 15 mph 1018mb 72f
5:12 7 11 mph 1018.1mb 71f
5:06 7 13 mph 1018.1mb 71f
5:00 6 11 mph 1018.1mb 71f
4:54 7 11 mph 1018.2mb 70f
4:48 7 15 mph 1018.2mb 70f
4:42 5 9 mph 1018.3mb 71f
4:36 6 9 mph 1018.4mb 71f
4:30 5 9 mph 1018.4mb 70f
4:24 5 10 mph 1018.5mb 70f
4:18 6 10 mph 1018.5mb 70f
4:12 6 11 mph 1018.6mb 70f
4:06 6 11 mph 1018.5mb 70f
4:00 6 10 mph 1018.5mb 70f
3:54 7 16 mph 1018.6mb 70f
3:48 7 11 mph 1018.5mb 70f
3:42 7 14 mph 1018.6mb 70f
3:36 7 16 mph 1018.6mb 70f
3:30 7 14 mph 1018.7mb 70f
3:24 6 10 mph 1018.7mb 71f
3:18 5 14 mph 1018.7mb 70f
3:12 7 16 mph 1018.7mb 70f
3:06 8 15 mph 1018.7mb 69f
3:00 8 21 mph 1018.6mb 69f
2:54 7 15 mph 1018.6mb 69f
2:48  -  mph 1018.6mb 69f
2:42  -  mph 1018.6mb 70f
2:36  -  mph 1018.6mb 70f
2:30 9 18 mph 1018.6mb 71f
2:24 8 18 mph 1018.7mb 71f
2:18 8 18 mph 1018.6mb 73f
2:12 8 15 mph 1018.6mb 73f
2:06 8 18 mph 1018.7mb 73f
2:00 8 21 mph 1018.6mb 73f
1:54 7 15 mph 1018.7mb 74f
1:48 8 15 mph 1018.8mb 73f
1:42 8 16 mph 1018.8mb 73f
1:36 8 20 mph 1018.8mb 73f
1:30 8 16 mph 1018.9mb 73f
1:24 8 17 mph 1019mb 73f
1:18 8 17 mph 1019.1mb 73f
1:12 6 15 mph 1019.2mb 74f
1:06 6 14 mph 1019.2mb 74f
1:00 8 16 mph 1019.3mb 73f
12:54 8 14 mph 1019.3mb 73f
12:48 9 15 mph 1019.4mb 73f
12:42 7 14 mph 1019.5mb 73f
12:36 8 15 mph 1019.4mb 73f
12:30 7 13 mph 1019.4mb 73f
12:24 8 16 mph 1019.6mb 73f
12:18 6 15 mph 1019.6mb 73f
12:12 7 14 mph 1019.7mb 73f
12:06 7 15 mph 1019.7mb 72f
12:00 8 15 mph 1019.7mb 72f
11:54 9 16 mph 1019.7mb 72f
11:48 8 18 mph 1019.8mb 71f
11:42 9 20 mph 1019.8mb 71f
11:36 8 20 mph 1019.8mb 71f
11:30 9 17 mph 1019.9mb 72f
11:24 7 16 mph 1019.8mb 72f
11:18 8 17 mph 1019.9mb 73f
11:12 5 10 mph 1019.9mb 74f
11:06 7 15 mph 1020mb 73f
11:00 5 13 mph 1019.8mb 74f
10:54 7 13 mph 1019.7mb 73f
10:48 7 13 mph 1019.7mb 73f
10:42 7 14 mph 1019.7mb 73f
10:36 5 10 mph 1019.7mb 73f
10:30 7 13 mph 1019.8mb 73f
10:24 7 11 mph 1019.9mb 72f
10:18 7 10 mph 1019.9mb 72f
10:12 7 15 mph 1020mb 72f
10:06 6 11 mph 1020mb 73f
10:00 7 13 mph 1020mb 72f
9:54 6 11 mph 1020.1mb 72f
9:48 5 8 mph 1020mb 72f
9:42 7 14 mph 1020.1mb 71f
9:36 6 10 mph 1020.2mb 71f
9:30 7 14 mph 1020.3mb 70f
9:24 7 10 mph 1020.5mb 71f
9:18 6 13 mph 1020.5mb 71f
9:12 7 13 mph 1020.5mb 71f
9:06 6 10 mph 1020.5mb 71f
9:00 3 9 mph 1020.6mb 72f
8:54 3 8 mph 1020.6mb 72f
8:48 5 9 mph 1020.6mb 71f
8:42 5 8 mph 1020.6mb 71f
8:36 6 13 mph 1020.6mb 70f
8:30 6 9 mph 1020.7mb 70f
8:24 6 10 mph 1020.6mb 70f
8:18 6 10 mph 1020.6mb 69f
8:12 6 13 mph 1020.6mb 69f